STARLINK-5192 (54074 NORAD) Tracking and Keplerian Element Data

This shows tracking and keplerian element data for the satellite.

Feedback or suggestion? Click here.




ElementValue
Catalog54074
NameSTARLINK-5192
Epoch Orbit548
Epoch Day325.33334491
Epoch Year2022
RAAN352.6199
Inclination53.2174
Eccentricity0.0001451
Argument of Perigee49.8246
Mean Anonmoly157.5255
Mean Motion15.49729162
Decay Rate-0.00711603
L11 54074U 22136Z 22325.33334491 -.00711603 00000+0 -13600-1 0 9998
L22 54074 53.2174 352.6199 0001451 49.8246 157.5255 15.49729162 5486



Live tracking and technical data element details for STARLINK-5192 (NORAD 54074). STARLINK-5192 can be tracked NOW for your location showing map with azimuth and elevation plus other details from your city location.







IsCatalogInMostPopularTable: catalog: 54074, numindb: 1
Update: records affected: 1



GetName: 54074 STARLINK-5192

Hit Count: updated at: Mon, 28 Nov 2022 22:36:27 GMT